Погода в Мосеевке

Россия / Ульяновская область     52°43′56″N   47°16′37″E
темп.,
°C
ветер,
м/с
пор.,
м/с
влажн.,
%
обл.,
%
осадки,
мм/ч
давл.,
гПа
погр.,
м
13 апреля, вт
вт1301:00+10в2275100 0.0 103312
04:00+8в227987 0.0 103316
07:00+8в227522 0.0 103419
10:00+13вюв475068 0.0 1034371
13:00+16юв573011 0.0 1033780
16:00+17юв57295 0.0 1031945
19:00+14вюв364618 0.0 103091
22:00+10вюв33535 0.0 103121
14 апреля, ср
ср1401:00+8в22630 0.0 103011
04:00+7в22700 0.0 103011
07:00+7в23730 0.0 102948
10:00+12вюв58705 0.0 1028445
13:00+16вюв68545 0.0 1026950
16:00+17юв67515 0.0 10241204
19:00+14вюв48650 0.0 1023187
22:00+10вюв35770 0.0 102388
15 апреля, чт
чт1501:00+9в22810 0.0 102212
04:00+8в22820 0.0 102211
07:00+8всв22800 0.0 102122
10:00+14в45588 0.0 1020328
13:00+18вюв454697 0.0 1019761
16:00+19вюв454129 0.0 10181180
19:00+16в335528 0.0 101741
22:00
16 апреля, пт
пт1601:00+11в1263100 0.0 101611
04:00+10всв226388 0.0 101611
07:00+9всв226766 0.0 101620
10:00+15в4550100 0.0 1016391
13:00+18в4539100 0.0 10161073
16:00+18в3336100 0.0 10151528
19:00+15с6963100 0.4 1016251
22:00+12св5981100 1.4 1017234
17 апреля, сб
сб1701:00+10св6108858 0.2 1018360
04:00+7св7128876 0.2 1019399
07:00+6св6128686 0.0 1021445
10:00+9св810567 0.0 1021817
13:00+11св89405 0.0 10221228
16:00+11св89380 0.0 10221546
19:00+8св710470 0.0 1024978
22:00+4св814490 0.0 1026765